Location: Powder Track
(41.8531°N, 72.3584°W)
Time: 04:18:19
(UTC+00:00)

X-37B - Pass Details

Date: 25 June 2021
Orbit: 383 x 392 km, 45.0° (Epoch: 01 July)

Event Time Altitude Azimuth Distance (km) Brightness Sun altitude
Rises 03:18:44 0° 273° (W) 2,254 4.8 -21.3°
Reaches altitude 10° 03:20:51 10° 279° (W) 1,401 3.8 -21.4°
Maximum altitude 03:23:54 46° 355° (N) 527 1.6 -21.6°
Enters shadow 03:24:16 43° 18° (NNE) 549 1.6 -21.7°
